Location: Helsinki
(60.1699°N, 24.9384°E)
Time: 23:23:53
(UTC+02:00)

Vanguard 2 Rocket - Pass Details

Date: 22 September 2023
Orbit: 553 x 3312 km, 32.9° (Epoch: 28 November)

Event Time Altitude Azimuth Distance (km) Brightness Sun altitude
Rises 12:10:06 0° 188° (S) 7,078 12.4 28.9°
Reaches altitude 10° 12:18:46 10° 167° (SSE) 6,254 12.8 29.3°
Maximum altitude 12:26:36 14° 144° (SE) 5,891 12.4 29.5°
Drops below altitude 10° 12:34:08 10° 120° (ESE) 5,998 11.7 29.7°
Sets 12:41:54 0° 99° (E) 6,594 11.5 29.9°
